This is the latest recevied weather packets stored in our database for station/object I1SXT-13. If no packets are shown the sender has not sent any weather packets the latest 10 day(s).
| Time | Temp. | Humidity | Pressure | Rain* | Wind** | Luminosity | Snow |
|---|---|---|---|---|---|---|---|
| 1778164468 | 20° C | 68% | 1014.4 hPa | 0 mm | - | - | - |
| 1778164164 | 21.11° C | 66% | 1015 hPa | 0 mm | - | - | - |
| 1778163570 | 21.11° C | 67% | 1016 hPa | 0 mm | - | - | - |
| 1778163266 | 20° C | 68% | 1015.2 hPa | 0 mm | - | - | - |
| 1778162969 | 21.11° C | 68% | 1015.6 hPa | 0 mm | - | - | - |
| 1778162665 | 19.44° C | 71% | 1015.3 hPa | 0 mm | - | - | - |
| 1778162367 | 20.56° C | 68% | 1015.5 hPa | 0 mm | - | - | - |
| 1778162063 | 20° C | 69% | 1016 hPa | 0 mm | - | - | - |
| 1778161766 | 20.56° C | 69% | 1016 hPa | 0 mm | - | - | - |
| 1778161469 | 20° C | 67% | 1015.5 hPa | 0 mm | - | - | - |
| 1778161165 | 20.56° C | 70% | 1015.8 hPa | 0 mm | - | - | - |
| 1778160868 | 18.89° C | 72% | 1015.4 hPa | 0 mm | - | - | - |
| 1778160564 | 20° C | 68% | 1015.8 hPa | 0 mm | - | - | - |
| 1778159969 | 20° C | 70% | 1015.2 hPa | 0 mm | - | - | - |
| 1778159666 | 20° C | 72% | 1015.5 hPa | 0 mm | - | - | - |
| 1778159368 | 20° C | 70% | 1016 hPa | 0 mm | - | - | - |
| 1778159064 | 22.22° C | 63% | 1015.6 hPa | 0 mm | - | - | - |
| 1778158767 | 21.11° C | 65% | 1015.7 hPa | 0 mm | - | - | - |
| 1778158470 | 21.67° C | 67% | 1014.8 hPa | 0 mm | - | - | - |
| 1778158166 | 20.56° C | 70% | 1015.4 hPa | 0 mm | - | - | - |
| 1778157869 | 20° C | 71% | 1015.8 hPa | 0 mm | - | - | - |
| 1778157565 | 19.44° C | 70% | 1015.8 hPa | 0 mm | - | - | - |
| 1778157268 | 20.56° C | 69% | 1016 hPa | 0 mm | - | - | - |
| 1778156963 | 21.11° C | 69% | 1015.8 hPa | 0 mm | - | - | - |
| 1778156666 | 20.56° C | 69% | 1015.5 hPa | 0 mm | - | - | - |
* Rain since midnight (hover to see other rain measurements)
** Current wind speed in m/s (hover to see current wind gust speed)